Voltar ao catálogo

CZ-4 DEB

AtivoSSO
NORAD 37625·DEBRIS·🇨🇳 China

Lançado Sep 3, 1990 de Taiyuan Satellite Launch Center

Loading…

Próximas Passagens (próximas 24 horas)

TLE

EnvelhecendoSource: Space-Track

Época: Sep 10, 2026, 06:46 UTC

1 37625U 90081DM  26253.28241932  .00003749  00000-0  75655-3 0  9994
2 37625  98.3502 262.1324 0003327  99.4873 260.6703 14.62038142246734

Acompanhe CZ-4 DEB em tempo real com AllMySat

Download on the App Store